Date String (YYYY-MM-DD hh:mm:ss) UTC,Instrument flags,Ambient pressure (hPa),Sample flow (lpm),Bypass flow (lpm),Sample temperature (°C),Ambient temperature (°C),ASC tube jacket temperature (°C),LED temperature (°C),Box temperature (°C),Sample RH (%),Span deviation,Mass concentration (μg/m³),Mass concentration (μg/m³),Mass concentration (μg/m³)
DateTimeUTC,F1_M11,P_M11,Q1_M11,Q2_M11,T1_M11,T2_M11,T3_M11,T4_M11,T5_M11,U1_M11,ZSPAN_M11,X0_M11,X2_M11,X1_M11
2023-04-24 04:00:00,,0827.4,5.00,0.00,26.0,24.3,00.0,34.4,27.6,12.4,-001.6,0012.30,0008.41,0007.86
2023-04-24 04:01:00,,0827.6,5.00,0.00,26.0,24.3,00.0,34.4,27.6,12.4,-001.5,0012.33,0008.42,0007.86
2023-04-24 04:02:00,,0827.8,5.01,0.00,26.0,24.3,00.0,34.4,27.6,12.4,-001.6,0012.28,0008.39,0007.85
2023-04-24 04:03:00,,0827.5,5.00,0.00,26.0,24.3,00.0,34.4,27.6,12.5,-001.1,0012.13,0008.34,0007.83
2023-04-24 04:04:00,,0827.5,5.00,0.00,26.0,24.3,00.0,34.4,27.6,12.4,-001.3,0011.99,0008.30,0007.80
2023-04-24 04:05:00,,0827.5,5.00,0.00,26.0,24.3,00.0,34.4,27.6,12.4,-002.1,0012.25,0008.30,0007.80
2023-04-24 04:06:00,,0827.5,5.00,0.00,26.0,24.3,00.0,34.4,27.6,12.3,-001.3,0012.36,0008.33,0007.81
2023-04-24 04:07:00,,0827.6,5.00,0.00,26.0,24.3,00.0,34.4,27.6,12.3,-000.8,0012.25,0008.31,0007.80
2023-04-24 04:08:00,,0827.6,5.00,0.00,25.9,24.3,00.0,34.4,27.6,12.2,0001.2,0012.38,0008.29,0007.78
2023-04-24 04:09:00,,0827.5,5.00,0.00,25.9,24.3,00.0,34.4,27.6,12.3,0003.5,0012.42,0008.29,0007.77
2023-04-24 04:10:00,,0827.6,5.00,0.00,25.9,24.3,00.0,34.4,27.5,12.3,0004.1,0012.32,0008.27,0007.75
2023-04-24 04:11:00,,0827.5,5.00,0.00,25.9,24.3,00.0,34.4,27.5,12.3,0004.0,0013.89,0008.28,0007.74
2023-04-24 04:12:00,,0827.5,5.00,0.00,25.9,24.3,00.0,34.3,27.6,12.4,0003.9,0014.19,0008.33,0007.73
2023-04-24 04:13:00,,0827.6,5.00,0.00,25.9,24.3,00.0,34.3,27.6,12.4,0003.3,0014.25,0008.33,0007.72
2023-04-24 04:14:00,,0827.6,5.01,0.00,25.9,24.3,00.0,34.3,27.6,12.5,0002.5,0014.34,0008.35,0007.72
2023-04-24 04:15:00,,0827.7,5.00,0.00,25.9,24.3,00.0,34.3,27.6,12.5,0002.2,0014.29,0008.36,0007.72
2023-04-24 04:16:00,,0827.5,5.00,0.00,25.9,24.3,00.0,34.3,27.5,12.5,0001.9,0013.90,0008.33,0007.71
2023-04-24 04:17:00,,0827.9,5.00,0.00,25.9,24.3,00.0,34.3,27.5,12.5,0001.8,0013.85,0008.31,0007.68
2023-04-24 04:18:00,,0827.6,5.00,0.00,25.9,24.3,00.0,34.3,27.5,12.6,0002.2,0013.88,0008.31,0007.67
2023-04-24 04:19:00,,0827.4,5.01,0.00,25.9,24.3,00.0,34.3,27.5,12.6,0002.0,0013.57,0008.29,0007.65
2023-04-24 04:20:00,,0827.4,5.01,0.00,25.9,24.3,00.0,34.3,27.5,12.6,0001.7,0013.55,0008.29,0007.64
2023-04-24 04:21:00,,0827.8,5.00,0.00,25.9,24.2,00.0,34.3,27.5,12.6,0001.2,0013.64,0008.28,0007.64
2023-04-24 04:22:00,,0827.8,4.99,0.00,25.9,24.2,00.0,34.3,27.5,12.7,0001.1,0012.11,0008.27,0007.62
2023-04-24 04:23:00,,0827.9,4.99,0.00,25.9,24.2,00.0,34.3,27.5,12.7,0000.4,0012.26,0008.21,0007.60
2023-04-24 04:24:00,,0827.6,5.01,0.00,25.9,24.2,00.0,34.3,27.5,12.9,0001.0,0012.14,0008.17,0007.59
2023-04-24 04:25:00,,0827.5,5.00,0.00,25.9,24.2,00.0,34.3,27.5,12.7,0001.4,0012.18,0008.17,0007.57
2023-04-24 04:26:00,,0827.4,5.00,0.00,25.8,24.2,00.0,34.3,27.5,12.7,0001.2,0012.23,0008.19,0007.57
2023-04-24 04:27:00,,0827.4,5.01,0.00,25.8,24.2,00.0,34.3,27.5,12.8,0000.4,0012.35,0008.20,0007.56
2023-04-24 04:28:00,,0827.4,5.00,0.00,25.8,24.2,00.0,34.2,27.5,12.7,-000.5,0012.33,0008.19,0007.55
2023-04-24 04:29:00,,0827.4,4.98,0.00,25.8,24.2,00.0,34.2,27.4,12.7,-001.0,0012.40,0008.20,0007.54
2023-04-24 04:30:00,,0827.4,5.01,0.00,25.8,24.2,00.0,34.2,27.4,12.6,-001.2,0012.47,0008.23,0007.54
2023-04-24 04:31:00,,0827.4,5.00,0.00,25.8,24.2,00.0,34.2,27.4,12.5,-001.5,0012.44,0008.22,0007.54
2023-04-24 04:32:00,,0827.4,5.01,0.00,25.8,24.1,00.0,34.2,27.4,12.6,-001.3,0012.29,0008.20,0007.53
2023-04-24 04:33:00,,0827.4,5.00,0.00,25.8,24.1,00.0,34.2,27.4,12.6,-001.2,0012.26,0008.18,0007.51
2023-04-24 04:34:00,,0827.4,5.00,0.00,25.8,24.1,00.0,34.2,27.4,12.5,-000.8,0011.85,0008.18,0007.51
2023-04-24 04:35:00,,0827.4,5.01,0.00,25.8,24.1,00.0,34.2,27.4,12.5,-001.8,0011.87,0008.19,0007.50
2023-04-24 04:36:00,,0827.3,5.00,0.00,25.8,24.1,00.0,34.2,27.4,12.5,-001.5,0011.84,0008.20,0007.50
2023-04-24 04:37:00,,0827.3,5.00,0.00,25.8,24.1,00.0,34.2,27.4,12.5,-001.0,0011.75,0008.17,0007.49
2023-04-24 04:38:00,,0827.3,5.00,0.00,25.8,24.1,00.0,34.2,27.4,12.5,-000.9,0011.61,0008.14,0007.49
2023-04-24 04:39:00,,0827.2,5.00,0.00,25.8,24.1,00.0,34.2,27.4,12.5,0001.1,0011.62,0008.11,0007.48
2023-04-24 04:40:00,,0827.2,5.00,0.00,25.7,24.1,00.0,34.2,27.4,12.4,0000.6,0011.63,0008.12,0007.47
2023-04-24 04:41:00,,0827.2,5.00,0.00,25.7,24.1,00.0,34.2,27.4,12.4,0000.1,0011.52,0008.10,0007.47
2023-04-24 04:42:00,,0827.2,5.00,0.00,25.7,24.1,00.0,34.1,27.4,12.4,0001.0,0011.48,0008.07,0007.45
2023-04-24 04:43:00,,0827.2,5.00,0.00,25.7,24.1,00.0,34.1,27.4,12.4,0001.7,0012.05,0008.11,0007.45
2023-04-24 04:44:00,,0827.2,4.98,0.00,25.7,24.1,00.0,34.1,27.4,12.4,0000.9,0012.13,0008.11,0007.45
2023-04-24 04:45:00,,0827.2,5.01,0.00,25.7,24.1,00.0,34.1,27.4,12.4,0000.6,0012.12,0008.10,0007.43
2023-04-24 04:46:00,,0827.2,5.00,0.00,25.7,24.1,00.0,34.1,27.4,12.3,0001.4,0011.98,0008.06,0007.42
2023-04-24 04:47:00,,0827.2,5.00,0.00,25.7,24.1,00.0,34.1,27.3,12.4,0000.8,0012.30,0008.04,0007.42
2023-04-24 04:48:00,,0827.1,5.00,0.00,25.7,24.1,00.0,34.1,27.4,12.3,0000.2,0012.56,0008.03,0007.41
2023-04-24 04:49:00,,0827.1,5.00,0.00,25.7,24.1,00.0,34.1,27.4,12.3,0000.3,0012.59,0008.03,0007.40
2023-04-24 04:50:00,,0827.1,5.00,0.00,25.7,24.1,00.0,34.1,27.4,12.2,-000.3,0012.91,0007.98,0007.39
2023-04-24 04:51:00,,0827.1,5.00,0.00,25.7,24.1,00.0,34.1,27.3,12.2,0000.5,0013.08,0007.91,0007.34
2023-04-24 04:52:00,,0827.1,5.00,0.00,25.7,24.1,00.0,34.1,27.3,12.2,0001.0,0013.32,0007.86,0007.30
2023-04-24 04:53:00,,0827.2,5.01,0.00,25.7,24.1,00.0,34.1,27.3,12.2,0001.5,0013.36,0007.83,0007.27
2023-04-24 04:54:00,,0827.2,5.00,0.00,25.7,24.1,00.0,34.1,27.3,12.2,0002.1,0012.78,0007.79,0007.25
2023-04-24 04:55:00,,0827.1,5.00,0.00,25.7,24.1,00.0,34.1,27.3,12.2,0002.9,0012.74,0007.76,0007.21
2023-04-24 04:56:00,,0827.1,5.00,0.00,25.7,24.1,00.0,34.1,27.3,12.1,0003.2,0012.67,0007.72,0007.18
2023-04-24 04:57:00,,0827.1,5.00,0.00,25.7,24.1,00.0,34.1,27.3,12.1,0002.3,0012.75,0007.71,0007.15
2023-04-24 04:58:00,,0827.1,5.01,0.00,25.7,24.1,00.0,34.1,27.3,12.1,0001.7,0012.36,0007.67,0007.12
2023-04-24 04:59:00,,0827.1,5.01,0.00,25.7,24.1,00.0,34.1,27.3,12.1,0001.6,0012.05,0007.64,0007.08
